TOM6KL EGPD-LGKR

Flight info

Callsign TOM6KL
Flight time 3h 15m
Altitude 35000
Route EPCAN DCT RIVOT DCT ROKAN DCT TOPPA/N0447F370 DCT DIXAT DCT DOJOH DCT DODEN DCT NEGIX DCT DINKU M867 XERUM DCT BAVAX DCT RADIZ/N0452F390 DCT DARZA DCT DEPET DCT UNIPA DCT VAKSU DCT RODON DCT LIMJA DCT PITAS
Aircraft B38M/M-SDFGHIJ1RWXYZ/LB1

Departure

Time 2026-05-08 15:52
Airport Aberdeen International Airport (EGPD)

Arrival

Time 2026-05-08 19:08
Airport Corfu Ioannis Kapodistrias International Airport (LGKR)
Time Latitude Longitude Altitude Speed Heading
2026-05-08 15:23 57.19920 -2.20126 249 ft 0 kts 226°
2026-05-08 15:42 57.19928 -2.20112 249 ft 4 kts 226°
2026-05-08 15:43 57.19943 -2.20082 249 ft 3 kts 226°
2026-05-08 15:43 57.19957 -2.20045 249 ft 4 kts 258°
2026-05-08 15:43 57.19952 -2.20011 249 ft 3 kts 316°
2026-05-08 15:43 57.19947 -2.20003 249 ft 0 kts 316°
2026-05-08 15:47 57.19948 -2.20004 249 ft 0 kts 316°
2026-05-08 15:47 57.19960 -2.20025 249 ft 6 kts 316°
2026-05-08 15:47 57.19970 -2.20043 249 ft 9 kts 316°
2026-05-08 15:47 57.20003 -2.20077 249 ft 14 kts 336°
2026-05-08 15:48 57.20239 -2.20252 249 ft 20 kts 338°
2026-05-08 15:48 57.20370 -2.20352 249 ft 21 kts 338°
2026-05-08 15:48 57.20465 -2.20374 249 ft 12 kts 36°
2026-05-08 15:49 57.20546 -2.20367 249 ft 13 kts 338°
2026-05-08 15:49 57.20637 -2.20435 249 ft 15 kts 338°
2026-05-08 15:49 57.20742 -2.20514 249 ft 18 kts 338°
2026-05-08 15:49 57.20863 -2.20603 249 ft 20 kts 339°
2026-05-08 15:50 57.20966 -2.20673 249 ft 7 kts 357°
2026-05-08 15:50 57.21003 -2.20611 249 ft 8 kts 68°
2026-05-08 15:50 57.21027 -2.20517 250 ft 9 kts 66°
2026-05-08 15:50 57.21038 -2.20470 250 ft 3 kts 64°
2026-05-08 15:51 57.21048 -2.20429 250 ft 4 kts 77°
2026-05-08 15:51 57.21034 -2.20401 250 ft 4 kts 151°
2026-05-08 15:51 57.20972 -2.20350 249 ft 32 kts 158°
2026-05-08 15:51 57.20517 -2.20013 252 ft 108 kts 158°
2026-05-08 15:52 57.19635 -2.19383 355 ft 153 kts 163°
2026-05-08 15:52 57.18618 -2.18634 952 ft 164 kts 160°
2026-05-08 15:52 57.17556 -2.17697 1545 ft 176 kts 157°
2026-05-08 15:52 57.16340 -2.16659 1908 ft 212 kts 158°
2026-05-08 15:53 57.14884 -2.15436 2373 ft 244 kts 158°
2026-05-08 15:53 57.13465 -2.13512 3047 ft 268 kts 127°
2026-05-08 15:53 57.12776 -2.10363 4211 ft 267 kts 105°
2026-05-08 15:53 57.12126 -2.07118 5141 ft 274 kts 116°
2026-05-08 15:54 57.11324 -2.03926 6175 ft 277 kts 116°
2026-05-08 15:54 57.10528 -2.00665 7083 ft 282 kts 116°
2026-05-08 15:54 57.09726 -1.97339 7983 ft 286 kts 117°
2026-05-08 15:54 57.08921 -1.93969 8911 ft 289 kts 118°
2026-05-08 15:55 57.08112 -1.90564 9847 ft 293 kts 118°
2026-05-08 15:55 57.06416 -1.83420 10943 ft 322 kts 118°
2026-05-08 15:55 57.05499 -1.79571 11463 ft 335 kts 118°
2026-05-08 15:56 57.04568 -1.75667 12199 ft 339 kts 117°
2026-05-08 15:56 57.03619 -1.71677 12956 ft 344 kts 117°
2026-05-08 15:56 57.02655 -1.67631 13722 ft 347 kts 117°
2026-05-08 15:56 57.01678 -1.63538 14402 ft 351 kts 117°
2026-05-08 15:57 57.00692 -1.59415 15054 ft 355 kts 117°
2026-05-08 15:57 56.99574 -1.55387 15683 ft 353 kts 130°
2026-05-08 15:57 56.97889 -1.52168 16305 ft 348 kts 147°
2026-05-08 15:57 56.96001 -1.49349 16892 ft 353 kts 145°
2026-05-08 15:58 56.94122 -1.46420 17531 ft 356 kts 144°
2026-05-08 15:58 56.92234 -1.43445 18142 ft 359 kts 144°
2026-05-08 15:58 56.90340 -1.40440 18705 ft 362 kts 144°
2026-05-08 15:58 56.88431 -1.37403 19201 ft 365 kts 144°
2026-05-08 15:59 56.86510 -1.34344 19678 ft 368 kts 144°
2026-05-08 15:59 56.84572 -1.31262 20167 ft 370 kts 145°
2026-05-08 15:59 56.82622 -1.28164 20613 ft 373 kts 144°
2026-05-08 15:59 56.80654 -1.25041 21049 ft 377 kts 145°
2026-05-08 16:00 56.78670 -1.21898 21511 ft 379 kts 145°
2026-05-08 16:00 56.76672 -1.18736 21977 ft 382 kts 145°
2026-05-08 16:00 56.74657 -1.15553 22432 ft 385 kts 145°
2026-05-08 16:00 56.72625 -1.12347 22871 ft 389 kts 145°
2026-05-08 16:01 56.70568 -1.09107 23342 ft 392 kts 145°
2026-05-08 16:01 56.68525 -1.05894 23773 ft 395 kts 145°
2026-05-08 16:01 56.66436 -1.02614 24151 ft 398 kts 145°
2026-05-08 16:01 56.64333 -0.99315 24533 ft 401 kts 145°
2026-05-08 16:02 56.62207 -0.95988 24907 ft 404 kts 146°
2026-05-08 16:02 56.60068 -0.92643 25287 ft 407 kts 146°
2026-05-08 16:02 56.57914 -0.89281 25654 ft 410 kts 146°
2026-05-08 16:02 56.55740 -0.85894 25977 ft 413 kts 146°
2026-05-08 16:03 56.53546 -0.82480 26325 ft 417 kts 146°
2026-05-08 16:03 56.51338 -0.79051 26689 ft 420 kts 146°
2026-05-08 16:03 56.49114 -0.75602 27039 ft 423 kts 146°
2026-05-08 16:03 56.46876 -0.72136 27380 ft 425 kts 146°
2026-05-08 16:04 56.44614 -0.68640 27725 ft 428 kts 146°
2026-05-08 16:04 56.42342 -0.65133 28058 ft 431 kts 146°
2026-05-08 16:04 56.40082 -0.61650 28388 ft 434 kts 146°
2026-05-08 16:04 56.37776 -0.58104 28711 ft 436 kts 146°
2026-05-08 16:05 56.35457 -0.54542 29033 ft 439 kts 146°
2026-05-08 16:05 56.33123 -0.50963 29346 ft 442 kts 146°
2026-05-08 16:05 56.30771 -0.47363 29650 ft 445 kts 146°
2026-05-08 16:05 56.28401 -0.43741 29941 ft 447 kts 146°
2026-05-08 16:06 56.26024 -0.40115 30234 ft 449 kts 146°
2026-05-08 16:06 56.23633 -0.36474 30480 ft 452 kts 146°
2026-05-08 16:06 56.21228 -0.32818 30729 ft 454 kts 146°
2026-05-08 16:06 56.18807 -0.29143 30972 ft 456 kts 146°
2026-05-08 16:07 56.16378 -0.25463 31207 ft 459 kts 146°
2026-05-08 16:07 56.13932 -0.21763 31452 ft 461 kts 146°
2026-05-08 16:07 56.11474 -0.18052 31688 ft 463 kts 146°
2026-05-08 16:07 56.08998 -0.14321 31923 ft 465 kts 146°
2026-05-08 16:08 56.07349 -0.11839 32080 ft 467 kts 146°
2026-05-08 16:08 56.04858 -0.08095 32292 ft 469 kts 146°
2026-05-08 16:08 56.01538 -0.03114 32604 ft 472 kts 146°
2026-05-08 16:08 55.99017 0.00658 32807 ft 474 kts 146°
2026-05-08 16:09 55.97304 0.03219 32928 ft 476 kts 146°
2026-05-08 16:09 55.94758 0.07018 33155 ft 478 kts 146°
2026-05-08 16:09 55.92199 0.10829 33402 ft 479 kts 146°
2026-05-08 16:09 55.89637 0.14639 33696 ft 479 kts 146°
2026-05-08 16:10 55.87107 0.18393 33991 ft 479 kts 146°
2026-05-08 16:10 55.84536 0.22203 34257 ft 479 kts 146°
2026-05-08 16:10 55.81974 0.25992 34522 ft 479 kts 146°
2026-05-08 16:10 55.79417 0.29768 34814 ft 477 kts 146°
2026-05-08 16:11 55.76861 0.33535 35060 ft 477 kts 146°
2026-05-08 16:11 55.74309 0.37289 35304 ft 476 kts 146°
2026-05-08 16:11 55.71752 0.41042 35584 ft 475 kts 145°
2026-05-08 16:11 55.69209 0.44770 35865 ft 474 kts 145°
2026-05-08 16:12 55.66667 0.48490 36138 ft 472 kts 145°
2026-05-08 16:12 55.64132 0.52193 36408 ft 471 kts 145°
2026-05-08 16:12 55.61605 0.55878 36651 ft 470 kts 145°
2026-05-08 16:12 55.59083 0.59550 36892 ft 469 kts 145°
2026-05-08 16:13 55.56561 0.63215 37105 ft 469 kts 145°
2026-05-08 16:13 55.54042 0.66870 37163 ft 469 kts 145°
2026-05-08 16:13 55.49015 0.74146 37141 ft 467 kts 144°
2026-05-08 16:14 55.43980 0.81409 37123 ft 467 kts 144°
2026-05-08 16:14 55.38980 0.88596 37134 ft 467 kts 145°
2026-05-08 16:15 55.33943 0.95813 37136 ft 467 kts 145°
2026-05-08 16:15 55.28899 1.03014 37138 ft 467 kts 145°
2026-05-08 16:16 55.23849 1.10202 37119 ft 467 kts 144°
2026-05-08 16:16 55.18788 1.17378 37141 ft 468 kts 144°
2026-05-08 16:17 55.13722 1.24539 37142 ft 468 kts 144°
2026-05-08 16:17 55.08654 1.31678 37149 ft 468 kts 144°
2026-05-08 16:18 55.03578 1.38804 37142 ft 468 kts 144°
2026-05-08 16:18 54.98532 1.45866 37130 ft 468 kts 144°
2026-05-08 16:19 54.93445 1.52960 37150 ft 469 kts 144°
2026-05-08 16:19 54.88356 1.60033 37148 ft 468 kts 144°
2026-05-08 16:20 54.83252 1.67105 37142 ft 469 kts 144°
2026-05-08 16:20 54.78147 1.74153 37149 ft 469 kts 144°
2026-05-08 16:21 54.73041 1.81180 37128 ft 469 kts 144°
2026-05-08 16:21 54.67934 1.88185 37149 ft 469 kts 144°
2026-05-08 16:22 54.62858 1.95124 37148 ft 468 kts 144°
2026-05-08 16:22 54.57741 2.02096 37153 ft 468 kts 144°
2026-05-08 16:23 54.52616 2.09057 37150 ft 468 kts 144°
2026-05-08 16:23 54.47495 2.15990 37134 ft 468 kts 144°
2026-05-08 16:24 54.42371 2.22903 37145 ft 468 kts 144°
2026-05-08 16:24 54.37241 2.29802 37144 ft 468 kts 144°
2026-05-08 16:25 54.32111 2.36679 37152 ft 468 kts 144°
2026-05-08 16:25 54.26976 2.43539 37151 ft 468 kts 144°
2026-05-08 16:26 54.21836 2.50384 37139 ft 468 kts 144°
2026-05-08 16:26 54.16694 2.57211 37160 ft 469 kts 144°
2026-05-08 16:27 54.11580 2.63977 37151 ft 468 kts 144°
2026-05-08 16:27 54.06426 2.70775 37154 ft 468 kts 144°
2026-05-08 16:28 54.01267 2.77557 37153 ft 468 kts 144°
2026-05-08 16:28 53.96106 2.84321 37145 ft 468 kts 144°
2026-05-08 16:29 53.90946 2.91061 37151 ft 468 kts 144°
2026-05-08 16:29 53.85784 2.97783 37154 ft 468 kts 144°
2026-05-08 16:30 53.80612 3.04495 37149 ft 468 kts 144°
2026-05-08 16:30 53.75444 3.11182 37148 ft 468 kts 144°
2026-05-08 16:31 53.70259 3.17868 37146 ft 469 kts 144°
2026-05-08 16:31 53.65064 3.24547 37150 ft 470 kts 144°
2026-05-08 16:32 53.59861 3.31215 37156 ft 469 kts 144°
2026-05-08 16:32 53.54660 3.37859 37154 ft 469 kts 144°
2026-05-08 16:33 53.49478 3.44458 37156 ft 469 kts 144°
2026-05-08 16:33 53.44270 3.51069 37157 ft 469 kts 144°
2026-05-08 16:34 53.39206 3.57991 37139 ft 470 kts 133°
2026-05-08 16:34 53.34775 3.66072 37130 ft 471 kts 134°
2026-05-08 16:35 53.30335 3.74058 37154 ft 472 kts 134°
2026-05-08 16:35 53.25862 3.82088 37147 ft 472 kts 134°
2026-05-08 16:36 53.21382 3.90106 37145 ft 472 kts 134°
2026-05-08 16:36 53.16898 3.98104 37132 ft 472 kts 134°
2026-05-08 16:37 53.12408 4.06084 37135 ft 472 kts 134°
2026-05-08 16:37 53.07917 4.14041 37137 ft 471 kts 134°
2026-05-08 16:38 53.03422 4.21980 37135 ft 471 kts 134°
2026-05-08 16:38 52.98929 4.29889 37137 ft 471 kts 134°
2026-05-08 16:39 52.94428 4.37787 37132 ft 471 kts 134°
2026-05-08 16:39 52.89947 4.45625 37123 ft 470 kts 134°
2026-05-08 16:40 52.85442 4.53479 37123 ft 470 kts 135°
2026-05-08 16:40 52.80932 4.61315 37124 ft 470 kts 135°
2026-05-08 16:41 52.76418 4.69134 37127 ft 470 kts 135°
2026-05-08 16:42 52.69640 4.80828 37113 ft 470 kts 135°
2026-05-08 16:42 52.65112 4.88609 37108 ft 470 kts 135°
2026-05-08 16:43 52.60583 4.96366 37110 ft 470 kts 135°
2026-05-08 16:43 52.56054 5.04098 37107 ft 469 kts 135°
2026-05-08 16:44 52.51521 5.11783 37105 ft 468 kts 136°
2026-05-08 16:44 52.46953 5.19309 37105 ft 468 kts 136°
2026-05-08 16:45 52.42356 5.26881 37102 ft 468 kts 136°
2026-05-08 16:45 52.37725 5.34489 37103 ft 468 kts 136°
2026-05-08 16:46 52.33206 5.41889 37104 ft 468 kts 136°
2026-05-08 16:46 52.28603 5.49405 37105 ft 467 kts 136°
2026-05-08 16:47 52.24004 5.56890 37100 ft 466 kts 136°
2026-05-08 16:47 52.19400 5.64358 37102 ft 466 kts 136°
2026-05-08 16:48 52.14797 5.71804 37105 ft 466 kts 137°
2026-05-08 16:48 52.10192 5.79230 37101 ft 466 kts 136°
2026-05-08 16:49 52.05587 5.86632 37103 ft 466 kts 137°
2026-05-08 16:49 52.00978 5.94017 37103 ft 465 kts 137°
2026-05-08 16:50 51.96366 6.01387 37101 ft 465 kts 137°
2026-05-08 16:50 51.91790 6.08676 37101 ft 465 kts 137°
2026-05-08 16:51 51.87264 6.15864 37099 ft 465 kts 137°
2026-05-08 16:51 51.82634 6.23194 37103 ft 465 kts 137°
2026-05-08 16:52 51.78007 6.30498 37106 ft 465 kts 137°
2026-05-08 16:52 51.73384 6.37772 37102 ft 464 kts 137°
2026-05-08 16:53 51.66430 6.48674 37101 ft 464 kts 137°
2026-05-08 16:53 51.61793 6.55917 37094 ft 464 kts 137°
2026-05-08 16:54 51.57936 6.61925 37106 ft 464 kts 137°
2026-05-08 16:54 51.53286 6.69147 37105 ft 464 kts 137°
2026-05-08 16:55 51.47885 6.77511 37107 ft 464 kts 138°
2026-05-08 16:55 51.43242 6.84677 37104 ft 463 kts 138°
2026-05-08 16:56 51.39342 6.90679 37106 ft 463 kts 138°
2026-05-08 16:56 51.34723 6.97768 37096 ft 463 kts 138°
2026-05-08 16:57 51.30065 7.04898 37101 ft 464 kts 138°
2026-05-08 16:57 51.25402 7.12013 37105 ft 463 kts 138°
2026-05-08 16:58 51.20742 7.19102 37104 ft 462 kts 138°
2026-05-08 16:58 51.16083 7.26170 37107 ft 462 kts 139°
2026-05-08 16:59 51.11425 7.33216 37107 ft 462 kts 139°
2026-05-08 16:59 51.06761 7.40249 37104 ft 462 kts 139°
2026-05-08 17:00 51.02089 7.47274 37105 ft 462 kts 139°
2026-05-08 17:00 50.97411 7.54289 37106 ft 462 kts 139°
2026-05-08 17:01 50.92736 7.61276 37104 ft 461 kts 139°
2026-05-08 17:01 50.88101 7.68186 37102 ft 461 kts 139°
2026-05-08 17:02 50.83426 7.75135 37103 ft 461 kts 139°
2026-05-08 17:02 50.78744 7.82074 37104 ft 461 kts 139°
2026-05-08 17:03 50.74064 7.88990 37103 ft 461 kts 139°
2026-05-08 17:03 50.69377 7.95896 37101 ft 461 kts 139°
2026-05-08 17:04 50.64694 8.02778 37098 ft 460 kts 139°
2026-05-08 17:04 50.60058 8.09722 37097 ft 461 kts 133°
2026-05-08 17:05 50.56033 8.17605 37103 ft 463 kts 131°
2026-05-08 17:05 50.52010 8.25497 37107 ft 463 kts 130°
2026-05-08 17:06 50.47983 8.33386 37105 ft 463 kts 131°
2026-05-08 17:06 50.43955 8.41255 37100 ft 462 kts 131°
2026-05-08 17:07 50.39921 8.49111 37102 ft 462 kts 131°
2026-05-08 17:07 50.35665 8.56623 37121 ft 460 kts 136°
2026-05-08 17:08 50.31293 8.63888 37085 ft 461 kts 135°
2026-05-08 17:08 50.26914 8.71213 37077 ft 461 kts 135°
2026-05-08 17:09 50.22542 8.78512 37080 ft 461 kts 135°
2026-05-08 17:09 50.18157 8.85812 37079 ft 461 kts 135°
2026-05-08 17:10 50.13761 8.93109 37080 ft 461 kts 135°
2026-05-08 17:10 50.09364 9.00387 37082 ft 461 kts 135°
2026-05-08 17:11 50.04963 9.07652 37080 ft 461 kts 135°
2026-05-08 17:11 50.00556 9.14904 37067 ft 461 kts 136°
2026-05-08 17:12 49.96146 9.22141 37083 ft 461 kts 136°
2026-05-08 17:12 49.91732 9.29365 37079 ft 461 kts 136°
2026-05-08 17:13 49.87311 9.36580 37069 ft 461 kts 136°
2026-05-08 17:13 49.82919 9.43727 37069 ft 461 kts 136°
2026-05-08 17:14 49.78490 9.50913 37091 ft 461 kts 136°
2026-05-08 17:14 49.74051 9.58094 37071 ft 461 kts 136°
2026-05-08 17:15 49.69614 9.65255 37087 ft 461 kts 136°
2026-05-08 17:15 49.65171 9.72402 37079 ft 461 kts 136°
2026-05-08 17:16 49.60723 9.79538 37079 ft 461 kts 136°
2026-05-08 17:16 49.56270 9.86662 37074 ft 461 kts 136°
2026-05-08 17:17 49.51839 9.93732 37068 ft 462 kts 136°
2026-05-08 17:17 49.47366 10.00838 37073 ft 462 kts 138°
2026-05-08 17:18 49.42670 10.07539 37077 ft 461 kts 140°
2026-05-08 17:18 49.37973 10.14271 37079 ft 461 kts 139°
2026-05-08 17:19 49.33286 10.20989 37084 ft 461 kts 140°
2026-05-08 17:19 49.28588 10.27703 37070 ft 461 kts 140°
2026-05-08 17:20 49.23889 10.34402 37108 ft 462 kts 140°
2026-05-08 17:20 49.19182 10.41094 37114 ft 462 kts 140°
2026-05-08 17:21 49.14474 10.47769 37110 ft 462 kts 140°
2026-05-08 17:21 49.09791 10.54390 37122 ft 462 kts 140°
2026-05-08 17:22 49.05075 10.61040 37119 ft 462 kts 140°
2026-05-08 17:22 49.00357 10.67676 37106 ft 461 kts 140°
2026-05-08 17:23 48.95632 10.74302 37111 ft 462 kts 140°
2026-05-08 17:23 48.90907 10.80911 37094 ft 462 kts 140°
2026-05-08 17:24 48.86175 10.87512 37080 ft 462 kts 140°
2026-05-08 17:24 48.81438 10.94104 37059 ft 462 kts 140°
2026-05-08 17:25 48.76701 11.00675 37041 ft 461 kts 141°
2026-05-08 17:25 48.71961 11.07235 37051 ft 462 kts 141°
2026-05-08 17:26 48.67239 11.13752 37045 ft 461 kts 141°
2026-05-08 17:26 48.62495 11.20282 37045 ft 461 kts 141°
2026-05-08 17:27 48.57737 11.26814 37048 ft 461 kts 141°
2026-05-08 17:27 48.52981 11.33325 37043 ft 461 kts 141°
2026-05-08 17:28 48.48224 11.39821 37048 ft 461 kts 141°
2026-05-08 17:28 48.43500 11.46256 37049 ft 461 kts 142°
2026-05-08 17:29 48.38709 11.52764 37048 ft 461 kts 142°
2026-05-08 17:29 48.33948 11.59213 37055 ft 461 kts 142°
2026-05-08 17:30 48.29180 11.65656 37038 ft 460 kts 142°
2026-05-08 17:30 48.24453 11.72026 37044 ft 459 kts 142°
2026-05-08 17:31 48.19698 11.78419 37046 ft 459 kts 142°
2026-05-08 17:31 48.14935 11.84805 37044 ft 459 kts 142°
2026-05-08 17:32 48.10165 11.91183 37048 ft 459 kts 142°
2026-05-08 17:32 48.05404 11.97534 37042 ft 459 kts 142°
2026-05-08 17:33 48.00640 12.03873 37020 ft 457 kts 142°
2026-05-08 17:33 47.95887 12.10179 37036 ft 457 kts 143°
2026-05-08 17:34 47.91157 12.16439 37041 ft 457 kts 143°
2026-05-08 17:34 47.86391 12.22730 37039 ft 457 kts 143°
2026-05-08 17:35 47.81628 12.29003 37041 ft 457 kts 143°
2026-05-08 17:35 47.76861 12.35264 37030 ft 457 kts 142°
2026-05-08 17:36 47.72124 12.41469 37040 ft 457 kts 143°
2026-05-08 17:36 47.67351 12.47707 37044 ft 457 kts 143°
2026-05-08 17:37 47.62558 12.53894 37039 ft 455 kts 145°
2026-05-08 17:37 47.57644 12.59841 37037 ft 456 kts 144°
2026-05-08 17:38 47.52749 12.65792 37063 ft 455 kts 144°
2026-05-08 17:38 47.47860 12.71722 37055 ft 454 kts 144°
2026-05-08 17:39 47.42974 12.77635 37053 ft 453 kts 144°
2026-05-08 17:39 47.38092 12.83528 37073 ft 454 kts 144°
2026-05-08 17:40 47.33196 12.89424 37070 ft 454 kts 145°
2026-05-08 17:40 47.28338 12.95259 37046 ft 454 kts 145°
2026-05-08 17:41 47.23439 13.01131 37094 ft 455 kts 145°
2026-05-08 17:41 47.18531 13.06997 37062 ft 454 kts 145°
2026-05-08 17:42 47.13625 13.12847 37076 ft 454 kts 145°
2026-05-08 17:42 47.08712 13.18691 37071 ft 454 kts 145°
2026-05-08 17:43 47.04638 13.23527 37071 ft 454 kts 145°
2026-05-08 17:43 46.99714 13.29357 37057 ft 456 kts 145°
2026-05-08 17:44 46.94777 13.35190 37078 ft 456 kts 145°
2026-05-08 17:44 46.89831 13.41021 37019 ft 456 kts 145°
2026-05-08 17:45 46.84877 13.46842 37048 ft 456 kts 145°
2026-05-08 17:45 46.79971 13.52596 37064 ft 456 kts 145°
2026-05-08 17:46 46.75026 13.58380 37048 ft 455 kts 146°
2026-05-08 17:46 46.70089 13.64141 37056 ft 455 kts 146°
2026-05-08 17:47 46.65136 13.69908 37065 ft 455 kts 146°
2026-05-08 17:47 46.60195 13.75646 37045 ft 455 kts 146°
2026-05-08 17:48 46.55238 13.81389 37067 ft 456 kts 146°
2026-05-08 17:48 46.50289 13.87110 37050 ft 455 kts 146°
2026-05-08 17:49 46.45324 13.92837 36981 ft 456 kts 146°
2026-05-08 17:49 46.40364 13.98540 37007 ft 456 kts 146°
2026-05-08 17:50 46.35404 14.04234 37091 ft 456 kts 146°
2026-05-08 17:50 46.30424 14.09933 37010 ft 455 kts 146°
2026-05-08 17:51 46.25495 14.15563 37041 ft 455 kts 146°
2026-05-08 17:51 46.20535 14.21214 36989 ft 453 kts 146°
2026-05-08 17:52 46.15575 14.26853 37031 ft 455 kts 146°
2026-05-08 17:53 46.08125 14.35296 37024 ft 454 kts 146°
2026-05-08 17:53 46.03163 14.40904 37015 ft 454 kts 146°
2026-05-08 17:54 45.98198 14.46501 37022 ft 453 kts 146°
2026-05-08 17:54 45.93238 14.52079 37027 ft 453 kts 146°
2026-05-08 17:55 45.88276 14.57647 37023 ft 452 kts 146°
2026-05-08 17:55 45.83311 14.63205 37030 ft 452 kts 146°
2026-05-08 17:56 45.78380 14.68713 37020 ft 452 kts 146°
2026-05-08 17:56 45.73407 14.74254 37032 ft 453 kts 146°
2026-05-08 17:57 45.68424 14.79797 37032 ft 453 kts 146°
2026-05-08 17:57 45.63446 14.85320 37029 ft 452 kts 146°
2026-05-08 17:58 45.58449 14.90794 37022 ft 453 kts 146°
2026-05-08 17:58 45.53439 14.96271 37030 ft 454 kts 146°
2026-05-08 17:59 45.48418 15.01749 37043 ft 455 kts 146°
2026-05-08 17:59 45.43424 15.07184 37036 ft 454 kts 146°
2026-05-08 18:00 45.38365 15.12677 37043 ft 454 kts 147°
2026-05-08 18:00 45.30822 15.20845 37055 ft 455 kts 147°
2026-05-08 18:01 45.25824 15.26241 37052 ft 454 kts 147°
2026-05-08 18:01 45.20786 15.31668 37037 ft 454 kts 147°
2026-05-08 18:02 45.16565 15.36206 37043 ft 455 kts 147°
2026-05-08 18:02 45.10709 15.42488 37040 ft 454 kts 147°
2026-05-08 18:03 45.05661 15.47887 37047 ft 455 kts 147°
2026-05-08 18:03 45.00616 15.53273 37060 ft 454 kts 146°
2026-05-08 18:04 44.95563 15.58655 37051 ft 454 kts 147°
2026-05-08 18:04 44.90513 15.64022 37048 ft 454 kts 147°
2026-05-08 18:05 44.85461 15.69377 37063 ft 455 kts 147°
2026-05-08 18:05 44.80394 15.74739 37049 ft 455 kts 147°
2026-05-08 18:06 44.75367 15.80045 37087 ft 455 kts 147°
2026-05-08 18:06 44.70290 15.85392 37035 ft 454 kts 147°
2026-05-08 18:07 44.65215 15.90724 37082 ft 455 kts 147°
2026-05-08 18:07 44.60131 15.96054 37047 ft 456 kts 147°
2026-05-08 18:08 44.55043 16.01377 37044 ft 456 kts 147°
2026-05-08 18:08 44.49959 16.06684 37060 ft 455 kts 147°
2026-05-08 18:09 44.44873 16.11980 37055 ft 456 kts 147°
2026-05-08 18:09 44.39821 16.17230 37053 ft 457 kts 147°
2026-05-08 18:10 44.34710 16.22530 37050 ft 458 kts 147°
2026-05-08 18:10 44.29606 16.27836 37059 ft 457 kts 146°
2026-05-08 18:11 44.24538 16.33188 37058 ft 457 kts 146°
2026-05-08 18:11 44.19460 16.38525 37041 ft 457 kts 146°
2026-05-08 18:12 44.14365 16.43869 37050 ft 459 kts 146°
2026-05-08 18:12 44.09259 16.49213 37053 ft 459 kts 146°
2026-05-08 18:13 44.04153 16.54544 37049 ft 458 kts 146°
2026-05-08 18:13 43.99085 16.59824 37008 ft 457 kts 146°
2026-05-08 18:14 43.93992 16.65119 37040 ft 460 kts 146°
2026-05-08 18:14 43.88871 16.70430 37065 ft 459 kts 147°
2026-05-08 18:15 43.83738 16.75744 37037 ft 460 kts 146°
2026-05-08 18:15 43.78605 16.81044 37034 ft 460 kts 147°
2026-05-08 18:16 43.73480 16.86325 37013 ft 458 kts 147°
2026-05-08 18:16 43.68344 16.91606 37059 ft 463 kts 147°
2026-05-08 18:17 43.63188 16.96896 37026 ft 461 kts 147°
2026-05-08 18:17 43.58029 17.02178 37047 ft 462 kts 147°
2026-05-08 18:18 43.52900 17.07417 37028 ft 461 kts 147°
2026-05-08 18:18 43.47752 17.12665 37044 ft 460 kts 147°
2026-05-08 18:19 43.42598 17.17907 37023 ft 460 kts 147°
2026-05-08 18:19 43.37444 17.23138 37016 ft 460 kts 147°
2026-05-08 18:20 43.32287 17.28360 37033 ft 461 kts 147°
2026-05-08 18:20 43.27128 17.33572 37000 ft 461 kts 147°
2026-05-08 18:21 43.21939 17.38806 37028 ft 464 kts 147°
2026-05-08 18:21 43.16750 17.44027 37024 ft 460 kts 147°
2026-05-08 18:22 43.11586 17.49212 37020 ft 461 kts 147°
2026-05-08 18:22 43.07288 17.53518 37019 ft 460 kts 147°
2026-05-08 18:23 43.01262 17.59542 37023 ft 464 kts 147°
2026-05-08 18:23 42.96041 17.64751 37018 ft 464 kts 147°
2026-05-08 18:24 42.90824 17.69945 37022 ft 464 kts 147°
2026-05-08 18:24 42.85600 17.75134 37016 ft 464 kts 147°
2026-05-08 18:25 42.80394 17.80294 37007 ft 463 kts 147°
2026-05-08 18:25 42.75157 17.85473 37021 ft 465 kts 147°
2026-05-08 18:26 42.69912 17.90650 37014 ft 465 kts 147°
2026-05-08 18:26 42.64703 17.95780 37020 ft 465 kts 147°
2026-05-08 18:27 42.61193 17.99231 37018 ft 465 kts 147°
2026-05-08 18:27 42.54184 18.06107 37019 ft 470 kts 147°
2026-05-08 18:28 42.48878 18.11299 37018 ft 470 kts 148°
2026-05-08 18:28 42.43567 18.16485 37019 ft 470 kts 148°
2026-05-08 18:29 42.38263 18.21654 37012 ft 470 kts 148°
2026-05-08 18:29 42.32947 18.26823 37008 ft 472 kts 148°
2026-05-08 18:30 42.27596 18.32015 37012 ft 474 kts 148°
2026-05-08 18:30 42.22234 18.37207 37001 ft 474 kts 148°
2026-05-08 18:31 42.17778 18.41512 37010 ft 474 kts 148°
2026-05-08 18:31 42.11531 18.47537 36988 ft 471 kts 148°
2026-05-08 18:32 42.07076 18.51824 37025 ft 476 kts 148°
2026-05-08 18:32 42.01679 18.57006 37013 ft 476 kts 148°
2026-05-08 18:33 41.96288 18.62172 37021 ft 476 kts 148°
2026-05-08 18:33 41.90893 18.67332 37021 ft 476 kts 148°
2026-05-08 18:34 41.85517 18.72461 37000 ft 479 kts 148°
2026-05-08 18:34 41.80045 18.77672 37016 ft 483 kts 149°
2026-05-08 18:35 41.74589 18.82857 37017 ft 478 kts 148°
2026-05-08 18:35 41.69160 18.88004 37019 ft 478 kts 148°
2026-05-08 18:36 41.63722 18.93150 36995 ft 479 kts 149°
2026-05-08 18:36 41.58241 18.98325 37007 ft 485 kts 149°
2026-05-08 18:37 41.52731 19.03517 37014 ft 485 kts 149°
2026-05-08 18:37 41.47211 19.08695 37014 ft 484 kts 151°
2026-05-08 18:38 41.44254 19.10701 37004 ft 471 kts 166°
2026-05-08 18:38 41.41164 19.12194 36999 ft 475 kts 164°
2026-05-08 18:38 41.34975 19.15302 37017 ft 477 kts 165°
2026-05-08 18:39 41.28737 19.18355 37005 ft 477 kts 165°
2026-05-08 18:39 41.22505 19.21391 37007 ft 477 kts 165°
2026-05-08 18:40 41.16262 19.24424 36774 ft 478 kts 165°
2026-05-08 18:40 41.13137 19.25940 36496 ft 477 kts 165°
2026-05-08 18:40 41.10057 19.27433 36229 ft 478 kts 165°
2026-05-08 18:41 41.06933 19.28945 35965 ft 478 kts 165°
2026-05-08 18:41 41.03806 19.30458 35700 ft 479 kts 165°
2026-05-08 18:41 41.00678 19.31969 35413 ft 477 kts 165°
2026-05-08 18:41 40.97563 19.33473 34703 ft 478 kts 166°
2026-05-08 18:42 40.94409 19.34993 33633 ft 487 kts 166°
2026-05-08 18:42 40.91194 19.36543 32614 ft 494 kts 166°
2026-05-08 18:42 40.87977 19.38092 32017 ft 490 kts 166°
2026-05-08 18:42 40.84798 19.39620 31668 ft 481 kts 166°
2026-05-08 18:43 40.81679 19.41118 31268 ft 474 kts 166°
2026-05-08 18:43 40.78589 19.42600 30720 ft 471 kts 166°
2026-05-08 18:43 40.75523 19.44070 30100 ft 470 kts 165°
2026-05-08 18:43 40.72454 19.45540 29387 ft 469 kts 166°
2026-05-08 18:44 40.69385 19.47008 28848 ft 465 kts 166°
2026-05-08 18:44 40.66358 19.48455 28333 ft 460 kts 165°
2026-05-08 18:44 40.63360 19.49886 27803 ft 457 kts 165°
2026-05-08 18:44 40.60387 19.51305 27273 ft 453 kts 165°
2026-05-08 18:45 40.57430 19.52713 26727 ft 450 kts 165°
2026-05-08 18:45 40.54488 19.54111 26103 ft 449 kts 165°
2026-05-08 18:45 40.51563 19.55500 25634 ft 445 kts 165°
2026-05-08 18:45 40.48659 19.56878 25120 ft 441 kts 165°
2026-05-08 18:46 40.45782 19.58243 24619 ft 439 kts 165°
2026-05-08 18:46 40.42918 19.59599 24105 ft 437 kts 164°
2026-05-08 18:46 40.40069 19.60948 23590 ft 434 kts 164°
2026-05-08 18:46 40.37235 19.62287 23003 ft 431 kts 164°
2026-05-08 18:47 40.34424 19.63614 22487 ft 424 kts 164°
2026-05-08 18:47 40.31699 19.64900 22019 ft 408 kts 164°
2026-05-08 18:47 40.29091 19.66130 21596 ft 402 kts 164°
2026-05-08 18:47 40.26460 19.67370 21106 ft 399 kts 165°
2026-05-08 18:48 40.23854 19.68596 20681 ft 397 kts 165°
2026-05-08 18:48 40.21257 19.69818 20238 ft 395 kts 165°
2026-05-08 18:48 40.18679 19.71031 19822 ft 392 kts 165°
2026-05-08 18:48 40.16115 19.72234 19382 ft 391 kts 165°
2026-05-08 18:49 40.13559 19.73434 18963 ft 389 kts 165°
2026-05-08 18:49 40.11018 19.74626 18549 ft 388 kts 165°
2026-05-08 18:49 40.08470 19.75728 18098 ft 382 kts 172°
2026-05-08 18:49 40.05872 19.75942 17705 ft 369 kts 188°
2026-05-08 18:50 40.03350 19.75674 17377 ft 362 kts 189°
2026-05-08 18:50 40.00845 19.75378 16924 ft 360 kts 189°
2026-05-08 18:50 39.98359 19.75080 16516 ft 357 kts 189°
2026-05-08 18:50 39.95903 19.74784 16021 ft 351 kts 189°
2026-05-08 18:51 39.93472 19.74485 15252 ft 350 kts 189°
2026-05-08 18:51 39.91070 19.74181 14605 ft 344 kts 189°
2026-05-08 18:51 39.88698 19.73873 13940 ft 341 kts 189°
2026-05-08 18:51 39.86353 19.73561 13227 ft 337 kts 189°
2026-05-08 18:52 39.84019 19.73248 12748 ft 335 kts 189°
2026-05-08 18:52 39.81707 19.72946 12325 ft 334 kts 189°
2026-05-08 18:52 39.79409 19.72645 11952 ft 330 kts 189°
2026-05-08 18:52 39.77123 19.72346 11540 ft 329 kts 189°
2026-05-08 18:53 39.74887 19.72053 11185 ft 326 kts 189°
2026-05-08 18:53 39.72649 19.71759 11031 ft 321 kts 189°
2026-05-08 18:53 39.70475 19.71479 11018 ft 307 kts 189°
2026-05-08 18:53 39.68401 19.71222 11016 ft 293 kts 189°
2026-05-08 18:54 39.66420 19.70987 11022 ft 279 kts 189°
2026-05-08 18:54 39.64534 19.70773 11017 ft 265 kts 189°
2026-05-08 18:54 39.62738 19.70593 11005 ft 252 kts 189°
2026-05-08 18:54 39.61016 19.70448 11001 ft 246 kts 189°
2026-05-08 18:55 39.57608 19.70168 10999 ft 245 kts 189°
2026-05-08 18:55 39.55913 19.70028 10999 ft 245 kts 189°
2026-05-08 18:55 39.54209 19.69888 10999 ft 245 kts 189°
2026-05-08 18:56 39.52509 19.69751 10998 ft 245 kts 189°
2026-05-08 18:56 39.50806 19.69614 10995 ft 245 kts 189°
2026-05-08 18:56 39.49103 19.69476 10991 ft 243 kts 189°
2026-05-08 18:56 39.47402 19.69337 10558 ft 249 kts 189°
2026-05-08 18:57 39.45642 19.69648 9902 ft 269 kts 161°
2026-05-08 18:57 39.44550 19.70394 9509 ft 273 kts 156°
2026-05-08 18:57 39.42290 19.71837 8808 ft 270 kts 157°
2026-05-08 18:57 39.40870 19.73464 8183 ft 278 kts 130°
2026-05-08 18:58 39.40057 19.75749 7515 ft 283 kts 104°
2026-05-08 18:58 39.39955 19.78237 6998 ft 282 kts 80°
2026-05-08 18:58 39.40677 19.80530 6637 ft 272 kts 51°
2026-05-08 18:58 39.42063 19.82047 6422 ft 254 kts 22°
2026-05-08 18:59 39.43701 19.82471 6242 ft 231 kts 350°
2026-05-08 18:59 39.45119 19.81798 6064 ft 208 kts 317°
2026-05-08 18:59 39.45885 19.80367 5957 ft 186 kts 281°
2026-05-08 18:59 39.45938 19.78738 6015 ft 182 kts 261°
2026-05-08 19:00 39.45376 19.77319 5977 ft 181 kts 223°
2026-05-08 19:00 39.44214 19.76695 5923 ft 185 kts 187°
2026-05-08 19:00 39.42919 19.77007 5525 ft 196 kts 162°
2026-05-08 19:00 39.41802 19.78029 5190 ft 202 kts 131°
2026-05-08 19:01 39.41239 19.79676 4921 ft 202 kts 102°
2026-05-08 19:01 39.40982 19.81458 4605 ft 200 kts 106°
2026-05-08 19:01 39.40679 19.83207 4292 ft 199 kts 107°
2026-05-08 19:01 39.40377 19.84919 4022 ft 196 kts 107°
2026-05-08 19:02 39.40083 19.86613 3835 ft 190 kts 103°
2026-05-08 19:02 39.40193 19.88283 3670 ft 186 kts 78°
2026-05-08 19:02 39.40530 19.89904 3593 ft 187 kts 78°
2026-05-08 19:02 39.40878 19.91536 3550 ft 189 kts 77°
2026-05-08 19:03 39.41232 19.93162 3491 ft 187 kts 77°
2026-05-08 19:03 39.41589 19.94780 3399 ft 187 kts 77°
2026-05-08 19:03 39.42236 19.96234 3184 ft 191 kts 42°
2026-05-08 19:03 39.43420 19.96947 2970 ft 190 kts
2026-05-08 19:04 39.44720 19.96791 2752 ft 188 kts 342°
2026-05-08 19:04 39.45987 19.96359 2531 ft 188 kts 342°
2026-05-08 19:04 39.47238 19.95914 2343 ft 182 kts 341°
2026-05-08 19:04 39.48432 19.95484 2246 ft 176 kts 341°
2026-05-08 19:05 39.49580 19.95081 2128 ft 168 kts 340°
2026-05-08 19:05 39.50697 19.94667 1872 ft 166 kts 338°
2026-05-08 19:05 39.51786 19.94256 1579 ft 165 kts 339°
2026-05-08 19:05 39.52885 19.93841 1301 ft 164 kts 340°
2026-05-08 19:06 39.53981 19.93430 1066 ft 167 kts 341°
2026-05-08 19:06 39.55068 19.92894 917 ft 165 kts 334°
2026-05-08 19:06 39.56141 19.92329 755 ft 168 kts 339°
2026-05-08 19:06 39.57287 19.91962 539 ft 167 kts 348°
2026-05-08 19:07 39.58381 19.91686 253 ft 154 kts 348°
2026-05-08 19:07 39.59409 19.91415 30 ft 147 kts 349°
2026-05-08 19:07 39.60250 19.91200 24 ft 92 kts 349°
2026-05-08 19:07 39.60740 19.91072 24 ft 54 kts 349°
2026-05-08 19:08 39.60958 19.91016 21 ft 16 kts 348°
2026-05-08 19:08 39.61027 19.91024 22 ft 9 kts 55°
2026-05-08 19:08 39.61060 19.91088 21 ft 7 kts 58°
2026-05-08 19:08 39.61040 19.91130 21 ft 7 kts 169°
2026-05-08 19:09 39.60985 19.91144 21 ft 9 kts 169°
2026-05-08 19:09 39.60911 19.91162 24 ft 12 kts 169°
2026-05-08 19:09 39.60860 19.91174 22 ft 6 kts 169°
2026-05-08 19:09 39.60819 19.91185 22 ft 7 kts 168°
2026-05-08 19:10 39.60765 19.91200 21 ft 7 kts 167°
2026-05-08 19:10 39.60745 19.91232 21 ft 5 kts 83°
2026-05-08 19:10 39.60754 19.91289 23 ft 8 kts 79°
2026-05-08 19:10 39.60757 19.91305 23 ft 2 kts 79°
2026-05-08 19:11 39.60760 19.91328 21 ft 0 kts 79°